Date,TemperatureHighF,TemperatureAvgF,TemperatureLowF,DewpointHighF,DewpointAvgF,DewpointLowF,HumidityHigh,HumidityAvg,HumidityLow,PressureMaxIn,PressureMinIn,WindSpeedMaxMPH,WindSpeedAvgMPH,GustSpeedMaxMPH,PrecipitationSumIn
2013-1-1,79.5,60.9,46.4,59.6,53.1,45.3,99,79,45,30.01,29.79,18,3,18,0.00
2013-1-2,79.3,63.7,52.9,67.3,59.9,51.9,99,89,63,29.86,29.74,14,3,14,0.02
2013-1-3,62.1,56.8,49.3,60.9,55.7,48.3,99,96,83,30.03,29.84,12,5,12,0.15
2013-1-4,60.4,52.0,46.9,52.5,48.5,44.6,99,88,75,30.12,30.01,12,4,12,0.02
2013-1-5,67.8,53.8,41.4,53.5,46.6,37.1,94,78,54,30.15,30.04,13,4,13,0.00
2013-1-6,65.7,57.0,50.7,56.5,54.2,49.3,99,91,70,30.05,29.89,11,4,11,0.66
2013-1-7,66.6,56.0,47.5,55.3,49.6,41.9,97,79,60,30.08,29.97,22,7,22,0.00
2013-1-8,70.3,61.2,58.6,64.6,59.2,55.0,99,93,80,30.07,29.97,13,4,13,0.06
2013-1-9,76.8,65.3,59.9,71.0,63.9,59.6,99,95,75,30.13,30.01,10,3,10,0.00
2013-1-10,80.6,68.8,61.0,72.2,65.8,60.5,99,91,64,30.14,30.06,14,2,14,0.16
2013-1-11,85.8,70.8,60.6,70.4,64.7,60.0,99,84,44,30.06,29.95,17,4,17,0.00
2013-1-12,84.2,69.6,59.0,72.3,64.2,58.7,99,85,45,30.00,29.88,14,3,14,0.00
2013-1-13,82.8,68.1,57.0,73.0,62.6,55.7,99,85,49,29.97,29.86,12,3,12,0.00
2013-1-14,84.4,69.1,57.2,70.3,62.7,56.8,99,82,49,29.99,29.89,17,4,17,0.00
2013-1-15,83.3,70.3,59.9,69.4,64.4,59.6,99,83,52,29.95,29.84,16,4,16,0.00
2013-1-16,85.8,72.0,60.8,68.0,63.7,59.1,99,78,43,29.88,29.76,16,5,16,0.00
2013-1-17,79.9,60.6,43.0,66.2,52.9,29.9,99,77,50,29.93,29.66,30,8,30,0.00
2013-1-18,60.3,51.8,41.9,45.8,39.4,30.1,79,63,51,30.19,29.93,29,12,29,0.00
2013-1-19,64.0,56.8,50.4,54.9,51.2,43.3,98,82,67,30.17,29.99,24,8,24,0.00
2013-1-20,75.9,60.7,50.2,55.7,50.6,45.8,99,74,38,30.01,29.86,12,3,12,0.00
2013-1-21,73.6,58.2,48.2,54.6,47.4,40.9,99,72,37,29.92,29.80,12,2,12,0.00
2013-1-22,68.4,53.3,41.4,41.9,30.2,20.1,79,45,18,30.10,29.87,17,4,17,0.00
2013-1-23,68.0,49.3,34.2,37.2,30.9,22.7,87,55,22,30.22,30.07,12,3,12,0.00
2013-1-24,76.1,57.7,-3.3,54.1,44.2,-17.9,89,64,35,30.10,29.97,20,4,20,0.52
2013-1-25,78.6,61.4,53.6,57.4,53.0,41.7,97,77,28,30.12,29.95,13,4,13,0.00
2013-1-26,79.7,64.0,50.2,60.1,55.4,46.6,99,76,49,30.03,29.93,17,3,17,0.00
2013-1-27,70.9,62.3,58.8,60.1,56.8,53.7,99,83,59,30.17,30.00,21,6,21,0.03
2013-1-28,76.8,65.7,54.7,70.2,60.9,54.2,99,86,62,30.16,30.05,17,4,17,0.00
2013-1-29,79.2,69.0,59.0,70.6,64.8,7.2,99,87,64,30.05,29.88,21,6,21,0.00
2013-1-30,86.5,75.0,59.9,67.7,64.6,56.8,99,72,47,29.89,29.57,27,10,27,0.10
2013-1-31,63.5,53.4,40.6,56.8,33.4,18.9,94,52,19,30.04,29.66,22,7,24,0.08